Weather History for Valley, United Kingdom

Change the Weather History Date:

Friday, December 7, 2012

  Actual Average Record
Temperature  
Mean Temperature 44 °F -  
Max Temperature 48 °F 48 °F 53 °F (1997)
Min Temperature 40 °F 39 °F 28 °F (2003)
Degree Days  
Heating Degree Days 21    
Moisture  
Dew Point 37 °F    
Average Humidity 71    
Maximum Humidity 87    
Minimum Humidity 54    
Precipitation  
Precipitation 0.02 in 0.12 in - ()
Sea Level Pressure  
Sea Level Pressure 29.78 in    
Wind  
Wind Speed 20 mph ()    
Max Wind Speed 30 mph    
Max Gust Speed 45 mph    
Visibility 8.0 miles    
Events Rain    
Averages and records for this station are not official NWS values.
T = Trace of Precipitation, MM = Missing Value Source: Averaged Metar Reports

Daily Weather History Graph

Daily Weather History Graph

Search for Another Location

Airport:

Trip Planner

Search our weather history database for the weather conditions in past years. The results will help you decide how hot, cold, wet, or windy it might be!

Date:

Astronomy

Dec. 07, 2012 Rise Set
Actual Time 8:18 AM GMT 4:00 PM GMT
Civil Twilight 7:36 AM GMT 4:42 PM GMT
Nautical Twilight 6:51 AM GMT 5:27 PM GMT
Astronomical Twilight 6:09 AM GMT 6:09 PM GMT
Moon 12:31 AM GMT (12/7) 12:36 PM GMT (12/7)
Length of Visible Light 9h 06m
Length of Day
7h 42m
Last Quarter, 41% of the Moon is Illuminated
Dec 7
Last Quarter
Dec 13
New
Dec 20
First Quarter
Dec 28
Full
Jan 5
Last Quarter

Hourly Weather History & Observations

Time (GMT) Temp. Windchill Dew Point Humidity Pressure Visibility Wind Dir Wind Speed Gust Speed Precip Events Conditions
12:50 AM 42.8 °F 34.8 °F 35.6 °F 76% 29.47 in 6.2 mi NW 17.3 mph - N/A   Mostly Cloudy
1:50 AM 41.0 °F 30.5 °F 37.4 °F 87% 29.47 in 6.2 mi NW 26.5 mph - N/A Rain Rain
2:50 AM 41 °F - 35 °F 71% 29.51 in 19 mi NW 24.2 mph - - Rain Light Rain
2:50 AM 41.0 °F 30.9 °F 35.6 °F 81% 29.50 in 6.2 mi NW 24.2 mph - N/A   Scattered Clouds
3:50 AM 42.8 °F 33.1 °F 33.8 °F 70% 29.50 in 6.2 mi NNW 25.3 mph - N/A   Scattered Clouds
4:50 AM 44.6 °F 35.3 °F 35.6 °F 71% 29.53 in 6.2 mi NNW 26.5 mph 40.3 mph N/A Rain Light Rain Showers
5:50 AM 44 °F - 39 °F 78% 29.58 in 5 mi NNW 20.7 mph - - Rain Light Rain Showers
5:50 AM 44.6 °F 36.4 °F 39.2 °F 81% 29.56 in 5.0 mi NNW 20.7 mph - N/A Rain Light Rain Showers
6:50 AM 44.6 °F 36.6 °F 37.4 °F 76% 29.62 in 6.2 mi North 19.6 mph - N/A   Partly Cloudy
7:50 AM 44.6 °F 36.4 °F 35.6 °F 71% 29.65 in 6.2 mi North 20.7 mph - N/A   Partly Cloudy
8:50 AM 45 °F - 36 °F 62% 29.70 in 16 mi NW 26.5 mph - -   Partly Cloudy
8:50 AM 44.6 °F 35.3 °F 35.6 °F 71% 29.68 in 6.2 mi NW 26.5 mph - N/A   Partly Cloudy
9:50 AM 46.4 °F 37.7 °F 37.4 °F 71% 29.71 in 6.2 mi NW 26.5 mph - N/A   Scattered Clouds
10:50 AM 46.4 °F 37.2 °F 37.4 °F 71% 29.71 in 6.2 mi NW 29.9 mph 44.9 mph N/A   Scattered Clouds
11:33 AM 46.4 °F 38.1 °F 41.0 °F 81% 29.71 in 6.2 mi NW 24.2 mph - N/A   Mostly Cloudy
11:50 AM 47 °F - 40 °F 71% 29.74 in 9 mi NNW 28.8 mph - - Rain Light Rain Showers
11:50 AM 46.4 °F 37.4 °F 41.0 °F 81% 29.71 in 6.2 mi NNW 28.8 mph 41.4 mph N/A Rain Light Rain Showers
12:50 PM 48.2 °F - 41.0 °F 76% 29.74 in 6.2 mi NNW 25.3 mph - N/A   Scattered Clouds
1:30 PM 48.2 °F - 39.2 °F 71% 29.77 in 6.2 mi North 26.5 mph - N/A   Scattered Clouds
1:50 PM 48.2 °F - 37.4 °F 66% 29.77 in 6.2 mi North 26.5 mph 38.0 mph N/A   Partly Cloudy
2:50 PM 47 °F - 38 °F 61% 29.84 in 19 mi North 24.2 mph - -   Partly Cloudy
2:50 PM 48.2 °F - 37.4 °F 66% 29.83 in 6.2 mi North 24.2 mph 36.8 mph N/A   Scattered Clouds
3:50 PM 48.2 °F - 35.6 °F 62% 29.86 in 6.2 mi North 24.2 mph - N/A   Partly Cloudy
4:50 PM 46.4 °F 38.5 °F 35.6 °F 66% 29.92 in 6.2 mi North 21.9 mph - N/A   Partly Cloudy
5:50 PM 47 °F - 36 °F 54% 29.97 in 16 mi North 21.9 mph - -   Scattered Clouds
5:50 PM 46.4 °F 38.5 °F 35.6 °F 66% 29.95 in 6.2 mi North 21.9 mph - N/A   Partly Cloudy
6:50 PM 46.4 °F 39.5 °F 33.8 °F 62% 29.98 in 6.2 mi North 17.3 mph - N/A   Partly Cloudy
7:50 PM 46.4 °F 39.2 °F 33.8 °F 62% 30.01 in 6.2 mi North 18.4 mph - N/A   Unknown
8:50 PM 45 °F - 35 °F 59% 30.05 in 19 mi North 19.6 mph - -   Scattered Clouds
8:50 PM 44.6 °F 36.6 °F 35.6 °F 71% 30.04 in 6.2 mi North 19.6 mph - N/A   Partly Cloudy
9:50 PM 44.6 °F 37.8 °F 35.6 °F 71% 30.06 in 6.2 mi North 15.0 mph - N/A   Unknown
10:50 PM 44.6 °F 38.8 °F 35.6 °F 71% 30.09 in 6.2 mi North 11.5 mph - N/A   Unknown
11:50 PM 40 °F - 35 °F 76% 30.14 in 22 mi North 8.1 mph - -   Scattered Clouds
11:50 PM 41.0 °F 35.8 °F 35.6 °F 81% 30.12 in 6.2 mi North 8.1 mph - N/A   Partly Cloudy